28-07-2023, 00:00:04,    267,    0.0,   13.7,   0.00,   0.00, 1003.6,    0.5, -999.0
28-07-2023, 00:00:15,    267,    0.0,   13.6,   0.00,   0.00, 1003.6,    0.6, -999.0
28-07-2023, 00:00:24,    267,    0.0,   13.7,   0.00,   0.00, 1003.5,    0.5, -999.0
28-07-2023, 00:00:34,    267,    0.0,   13.7,   0.00,   0.00, 1003.5,    0.4, -999.0
28-07-2023, 00:00:44,    267,    0.0,   13.7,   0.00,   0.00, 1003.6,    0.5, -999.0
28-07-2023, 00:00:54,    267,    0.0,   13.6,   0.00,   0.00, 1003.6,    0.4, -999.0
28-07-2023, 00:01:04,    267,    0.0,   13.6,   0.00,   0.00, 1003.6,    0.4, -999.0
28-07-2023, 00:01:14,    268,    0.0,   13.7,   0.00,   0.00, 1003.5,    0.5, -999.0
28-07-2023, 00:01:24,    267,    0.0,   13.6,   0.00,   0.00, 1003.5,    0.5, -999.0
28-07-2023, 00:01:34,    268,    0.1,   13.7,   0.00,   0.00, 1003.6,    0.5, -999.0
28-07-2023, 00:01:44,    267,    0.0,   13.6,   0.00,   0.00, 1003.5,    0.5, -999.0
28-07-2023, 00:01:54,    267,    0.0,   13.6,   0.00,   0.00, 1003.6,    0.4, -999.0
28-07-2023, 00:02:04,    267,    0.0,   13.6,   0.00,   0.00, 1003.5,    0.5, -999.0
28-07-2023, 00:02:14,    267,    0.0,   13.6,   0.00,   0.00, 1003.5,    0.4, -999.0
28-07-2023, 00:02:24,    267,    0.0,   13.6,   0.00,   0.00, 1003.5,    0.5, -999.0
28-07-2023, 00:02:34,    267,    0.0,   13.6,   0.00,   0.00, 1003.5,    0.5, -999.0
28-07-2023, 00:02:44,    267,    0.0,   13.6,   0.00,   0.00, 1003.5,    0.5, -999.0
28-07-2023, 00:02:54,    267,    0.0,   13.6,   0.00,   0.00, 1003.5,    0.5, -999.0
28-07-2023, 00:03:04,    267,    0.0,   13.6,   0.00,   0.00, 1003.5,    0.5, -999.0
28-07-2023, 00:03:14,    267,    0.0,   13.6,   0.00,   0.00, 1003.4,    0.6, -999.0
28-07-2023, 00:03:24,    267,    0.0,   13.6,   0.00,   0.00, 1003.4,    0.3, -999.0
28-07-2023, 00:03:34,    267,    0.0,   13.6,   0.00,   0.00, 1003.5,    0.4, -999.0
28-07-2023, 00:03:44,    267,    0.0,   13.6,   0.00,   0.00, 1003.4,    0.4, -999.0
28-07-2023, 00:03:54,    267,    0.0,   13.6,   0.00,   0.00, 1003.5,    0.6, -999.0
28-07-2023, 00:04:04,    267,    0.0,   13.6,   0.00,   0.00, 1003.4,    0.5, -999.0
28-07-2023, 00:04:14,    267,    0.0,   13.6,   0.00,   0.00, 1003.4,    0.6, -999.0
28-07-2023, 00:04:24,    267,    0.0,   13.6,   0.00,   0.00, 1003.4,    0.4, -999.0
28-07-2023, 00:04:34,    267,    0.0,   13.6,   0.00,   0.00, 1003.4,    0.4, -999.0
28-07-2023, 00:04:44,    267,    0.0,   13.6,   0.00,   0.00, 1003.5,    0.5, -999.0
28-07-2023, 00:04:54,    267,    0.0,   13.6,   0.00,   0.00, 1003.4,    0.5, -999.0
28-07-2023, 00:05:04,    267,    0.0,   13.7,   0.00,   0.00, 1003.4,    0.5, -999.0
28-07-2023, 00:05:13,    267,    0.0,   13.7,   0.00,   0.00, 1003.4,    0.5, -999.0
28-07-2023, 00:05:24,    267,    0.0,   13.7,   0.00,   0.00, 1003.4,    0.6, -999.0
28-07-2023, 00:05:34,    267,    0.0,   13.7,   0.00,   0.00, 1003.4,    0.5, -999.0
28-07-2023, 00:05:43,    267,    0.0,   13.7,   0.00,   0.00, 1003.4,    0.4, -999.0
28-07-2023, 00:05:53,    265,    0.0,   13.7,   0.00,   0.00, 1003.4,    0.4, -999.0
28-07-2023, 00:06:04,    267,    0.0,   13.7,   0.00,   0.00, 1003.4,    0.6, -999.0
28-07-2023, 00:06:14,    267,    0.0,   13.7,   0.00,   0.00, 1003.4,    0.7, -999.0
28-07-2023, 00:06:23,    267,    0.0,   13.6,   0.00,   0.00, 1003.4,    0.4, -999.0
28-07-2023, 00:06:33,    267,    0.0,   13.6,   0.00,   0.00, 1003.4,    0.6, -999.0
28-07-2023, 00:06:44,    267,    0.0,   13.7,   0.00,   0.00, 1003.4,    0.5, -999.0
28-07-2023, 00:06:53,    267,    0.0,   13.7,   0.00,   0.00, 1003.4,    0.5, -999.0
28-07-2023, 00:07:03,    267,    0.0,   13.6,   0.00,   0.00, 1003.4,    0.5, -999.0
28-07-2023, 00:07:13,    267,    0.0,   13.7,   0.00,   0.00, 1003.4,    0.4, -999.0
28-07-2023, 00:07:23,    267,    0.0,   13.7,   0.00,   0.00, 1003.4,    0.4, -999.0
28-07-2023, 00:07:33,    267,    0.0,   13.7,   0.00,   0.00, 1003.4,    0.6, -999.0
28-07-2023, 00:07:43,    267,    0.0,   13.6,   0.00,   0.00, 1003.4,    0.4, -999.0
28-07-2023, 00:07:53,    267,    0.0,   13.7,   0.00,   0.00, 1003.4,    0.5, -999.0
28-07-2023, 00:08:03,    267,    0.0,   13.7,   0.00,   0.00, 1003.4,    0.5, -999.0
28-07-2023, 00:08:13,    267,    0.0,   13.7,   0.00,   0.00, 1003.4,    0.6, -999.0
28-07-2023, 00:08:23,    267,    0.0,   13.6,   0.00,   0.00, 1003.4,    0.7, -999.0
28-07-2023, 00:08:33,    267,    0.1,   13.6,   0.00,   0.00, 1003.4,    0.5, -999.0
28-07-2023, 00:08:43,    258,    0.2,   13.7,   0.00,   0.00, 1003.5,    0.6, -999.0
28-07-2023, 00:08:53,    258,    0.0,   13.7,   0.00,   0.00, 1003.4,    0.3, -999.0
28-07-2023, 00:09:03,    258,    0.0,   13.7,   0.00,   0.00, 1003.4,    0.6, -999.0
28-07-2023, 00:09:13,    258,    0.0,   13.7,   0.00,   0.00, 1003.4,    0.5, -999.0
28-07-2023, 00:09:23,    257,    0.0,   13.6,   0.00,   0.00, 1003.4,    0.6, -999.0
28-07-2023, 00:09:33,    257,    0.0,   13.7,   0.00,   0.00, 1003.4,    0.4, -999.0
28-07-2023, 00:09:43,    257,    0.0,   13.7,   0.00,   0.00, 1003.4,    0.5, -999.0
28-07-2023, 00:09:53,    257,    0.0,   13.7,   0.00,   0.00, 1003.4,    0.5, -999.0
28-07-2023, 00:10:03,    257,    0.0,   13.6,   0.00,   0.00, 1003.4,    0.5, -999.0
28-07-2023, 00:10:13,    257,    0.0,   13.6,   0.00,   0.00, 1003.4,    0.5, -999.0
28-07-2023, 00:10:23,    257,    0.0,   13.7,   0.00,   0.00, 1003.4,    0.3, -999.0
28-07-2023, 00:10:33,    257,    0.0,   13.6,   0.00,   0.00, 1003.3,    0.3, -999.0
28-07-2023, 00:10:43,    257,    0.0,   13.6,   0.00,   0.00, 1003.4,    0.4, -999.0
28-07-2023, 00:10:53,    257,    0.0,   13.6,   0.00,   0.00, 1003.4,    0.5, -999.0
28-07-2023, 00:11:03,    257,    0.0,   13.7,   0.00,   0.00, 1003.4,    0.4, -999.0
28-07-2023, 00:11:13,    258,    0.0,   13.7,   0.00,   0.00, 1003.4,    0.5, -999.0
28-07-2023, 00:11:23,    257,    0.0,   13.7,   0.00,   0.00, 1003.4,    0.7, -999.0
28-07-2023, 00:11:33,    257,    0.0,   13.7,   0.00,   0.00, 1003.4,    0.6, -999.0
28-07-2023, 00:11:42,    258,    0.0,   13.7,   0.00,   0.00, 1003.4,    0.7, -999.0
28-07-2023, 00:11:53,    257,    0.0,   13.7,   0.00,   0.00, 1003.4,    0.5, -999.0
28-07-2023, 00:12:03,    257,    0.0,   13.7,   0.00,   0.00, 1003.4,    0.4, -999.0
28-07-2023, 00:12:12,    266,    0.0,   13.7,   0.00,   0.00, 1003.3,    0.5, -999.0
28-07-2023, 00:12:22,    258,    0.0,   13.7,   0.00,   0.00, 1003.3,    0.5, -999.0
28-07-2023, 00:12:33,    258,    0.0,   13.7,   0.00,   0.00, 1003.4,    0.4, -999.0
28-07-2023, 00:12:42,    257,    0.0,   13.7,   0.00,   0.00, 1003.4,    0.5, -999.0
28-07-2023, 00:12:52,    258,    0.0,   13.7,   0.00,   0.00, 1003.4,    0.7, -999.0
28-07-2023, 00:13:02,    258,    0.0,   13.8,   0.00,   0.00, 1003.4,    0.7, -999.0
28-07-2023, 00:13:13,    257,    0.0,   13.8,   0.00,   0.00, 1003.4,    0.4, -999.0
28-07-2023, 00:13:22,    258,    0.0,   13.7,   0.00,   0.00, 1003.4,    0.6, -999.0
28-07-2023, 00:13:32,    258,    0.0,   13.7,   0.00,   0.00, 1003.4,    0.6, -999.0
28-07-2023, 00:13:43,    257,    0.0,   13.7,   0.00,   0.00, 1003.4,    0.5, -999.0
28-07-2023, 00:13:52,    257,    0.0,   13.7,   0.00,   0.00, 1003.4,    0.6, -999.0
28-07-2023, 00:14:02,    258,    0.0,   13.7,   0.00,   0.00, 1003.4,    0.5, -999.0
28-07-2023, 00:14:12,    257,    0.2,   13.8,   0.00,   0.00, 1003.4,    0.4, -999.0
28-07-2023, 00:14:22,    257,    0.0,   13.7,   0.00,   0.00, 1003.4,    0.8, -999.0
28-07-2023, 00:14:32,    257,    0.0,   13.7,   0.00,   0.00, 1003.4,    0.4, -999.0
28-07-2023, 00:14:42,    257,    0.1,   13.6,   0.00,   0.00, 1003.4,    0.4, -999.0
28-07-2023, 00:14:52,    257,    0.0,   13.8,   0.00,   0.00, 1003.4,    0.6, -999.0
28-07-2023, 00:15:02,    257,    0.2,   13.7,   0.00,   0.00, 1003.4,    0.4, -999.0
28-07-2023, 00:15:12,    257,    0.0,   13.6,   0.00,   0.00, 1003.4,    0.8, -999.0
28-07-2023, 00:15:22,    257,    0.0,   13.7,   0.00,   0.00, 1003.4,    0.4, -999.0
28-07-2023, 00:15:32,    257,    0.0,   13.7,   0.00,   0.00, 1003.4,    0.5, -999.0
28-07-2023, 00:15:42,    257,    0.0,   13.7,   0.00,   0.00, 1003.4,    0.9, -999.0
28-07-2023, 00:15:52,    257,    0.0,   13.6,   0.00,   0.00, 1003.4,    0.4, -999.0
28-07-2023, 00:16:02,    257,    0.0,   13.6,   0.00,   0.00, 1003.3,    0.5, -999.0
28-07-2023, 00:16:12,    257,    0.0,   13.6,   0.00,   0.00, 1003.4,    0.4, -999.0
28-07-2023, 00:16:22,    257,    0.0,   13.4,   0.00,   0.00, 1003.4,    0.5, -999.0
28-07-2023, 00:16:32,    257,    0.0,   13.6,   0.00,   0.00, 1003.4,    0.6, -999.0
28-07-2023, 00:16:42,    247,    0.6,   13.7,   0.00,   0.00, 1003.5,    0.4, -999.0
28-07-2023, 00:16:52,    247,    0.3,   13.7,   0.00,   0.00, 1003.4,    0.2, -999.0
28-07-2023, 00:17:02,    246,    0.0,   13.6,   0.00,   0.00, 1003.4,    0.6, -999.0
28-07-2023, 00:17:12,    246,    0.0,   13.6,   0.00,   0.00, 1003.4,    0.5, -999.0
28-07-2023, 00:17:22,    247,    0.0,   13.6,   0.00,   0.00, 1003.4,    0.4, -999.0
28-07-2023, 00:17:32,    247,    0.0,   13.7,   0.00,   0.00, 1003.4,    0.5, -999.0
28-07-2023, 00:17:42,    200,    0.5,   13.7,   0.00,   0.00, 1003.4,    0.3, -999.0
28-07-2023, 00:17:52,    204,    1.2,   13.8,   0.00,   0.00, 1003.5,    0.8, -999.0
28-07-2023, 00:18:01,    203,    0.4,   13.7,   0.00,   0.00, 1003.5,    0.3, -999.0
28-07-2023, 00:18:12,    204,    0.0,   13.7,   0.00,   0.00, 1003.4,    0.3, -999.0
28-07-2023, 00:18:22,    204,    0.0,   13.7,   0.00,   0.00, 1003.3,    0.5, -999.0
28-07-2023, 00:18:32,    203,    0.0,   13.7,   0.00,   0.00, 1003.4,    0.6, -999.0
28-07-2023, 00:18:41,    204,    0.0,   13.7,   0.00,   0.00, 1003.4,    0.3, -999.0
28-07-2023, 00:18:52,    203,    0.0,   13.6,   0.00,   0.00, 1003.4,    0.6, -999.0
28-07-2023, 00:19:02,    203,    0.0,   13.7,   0.00,   0.00, 1003.4,    0.5, -999.0
28-07-2023, 00:19:11,    204,    0.0,   13.6,   0.00,   0.00, 1003.4,    0.6, -999.0
28-07-2023, 00:19:21,    204,    0.0,   13.7,   0.00,   0.00, 1003.4,    0.6, -999.0
28-07-2023, 00:19:32,    204,    0.0,   13.7,   0.00,   0.00, 1003.4,    0.4, -999.0
28-07-2023, 00:19:41,    204,    0.0,   13.7,   0.00,   0.00, 1003.4,    0.5, -999.0
28-07-2023, 00:19:51,    205,    0.0,   13.7,   0.00,   0.00, 1003.4,    0.6, -999.0
28-07-2023, 00:20:01,    204,    0.0,   13.7,   0.00,   0.00, 1003.4,    0.4, -999.0
28-07-2023, 00:20:11,    204,    0.0,   13.7,   0.00,   0.00, 1003.4,    0.5, -999.0
28-07-2023, 00:20:21,    204,    0.0,   13.7,   0.00,   0.00, 1003.4,    0.6, -999.0
28-07-2023, 00:20:31,    274,    0.1,   13.7,   0.00,   0.00, 1003.4,    0.5, -999.0
28-07-2023, 00:20:41,    277,    0.9,   13.8,   0.00,   0.00, 1003.5,    0.7, -999.0
28-07-2023, 00:20:51,    276,    0.0,   13.7,   0.00,   0.00, 1003.4,    0.5, -999.0
28-07-2023, 00:21:01,    276,    0.0,   13.7,   0.00,   0.00, 1003.4,    0.5, -999.0
28-07-2023, 00:21:11,    275,    0.0,   13.7,   0.00,   0.00, 1003.4,    0.4, -999.0
28-07-2023, 00:21:21,    276,    0.0,   13.7,   0.00,   0.00, 1003.4,    0.8, -999.0
28-07-2023, 00:21:31,    277,    0.1,   13.8,   0.00,   0.00, 1003.4,    0.7, -999.0
28-07-2023, 00:21:41,    277,    0.0,   13.7,   0.00,   0.00, 1003.4,    0.6, -999.0
28-07-2023, 00:21:51,    277,    0.0,   13.7,   0.00,   0.00, 1003.4,    0.5, -999.0
28-07-2023, 00:22:01,    277,    0.1,   13.7,   0.00,   0.00, 1003.5,    0.6, -999.0
28-07-2023, 00:22:11,    277,    0.1,   13.7,   0.00,   0.00, 1003.5,    0.4, -999.0
28-07-2023, 00:22:21,    277,    0.8,   13.7,   0.00,   0.00, 1003.5,    0.5, -999.0
28-07-2023, 00:22:31,    277,    0.7,   13.8,   0.00,   0.00, 1003.5,    0.6, -999.0
28-07-2023, 00:22:41,    276,    0.5,   13.8,   0.00,   0.00, 1003.5,    0.8, -999.0
28-07-2023, 00:22:51,    276,    0.0,   13.7,   0.00,   0.00, 1003.4,    0.4, -999.0
28-07-2023, 00:23:01,    217,    0.1,   13.7,   0.00,   0.00, 1003.4,    0.6, -999.0
28-07-2023, 00:23:11,    209,    1.8,   13.8,   0.00,   0.00, 1003.5,    0.7, -999.0
28-07-2023, 00:23:21,    213,    0.9,   13.9,   0.00,   0.00, 1003.6,    0.5, -999.0
28-07-2023, 00:23:31,    213,    0.4,   13.8,   0.00,   0.00, 1003.5,    0.5, -999.0
28-07-2023, 00:23:41,    213,    0.3,   13.8,   0.00,   0.00, 1003.5,    0.5, -999.0
28-07-2023, 00:23:51,    213,    0.0,   13.7,   0.00,   0.00, 1003.4,    0.8, -999.0
28-07-2023, 00:24:01,    213,    0.0,   13.6,   0.00,   0.00, 1003.4,    0.6, -999.0
28-07-2023, 00:24:11,    213,    0.0,   13.7,   0.00,   0.00, 1003.4,    0.8, -999.0
28-07-2023, 00:24:21,    212,    0.0,   13.7,   0.00,   0.00, 1003.4,    0.5, -999.0
28-07-2023, 00:24:30,    213,    0.0,   13.7,   0.00,   0.00, 1003.4,    0.5, -999.0
28-07-2023, 00:24:41,    213,    0.0,   13.7,   0.00,   0.00, 1003.4,    0.5, -999.0
28-07-2023, 00:24:51,    214,    0.0,   13.7,   0.00,   0.00, 1003.4,    0.4, -999.0
28-07-2023, 00:25:00,    213,    0.0,   13.8,   0.00,   0.00, 1003.4,    0.6, -999.0
28-07-2023, 00:25:10,    213,    0.0,   13.7,   0.00,   0.00, 1003.4,    0.4, -999.0
28-07-2023, 00:25:21,    213,    0.0,   13.7,   0.00,   0.00, 1003.4,    0.4, -999.0
28-07-2023, 00:25:31,    213,    0.0,   13.7,   0.00,   0.00, 1003.4,    0.4, -999.0
28-07-2023, 00:25:40,    246,    0.1,   13.8,   0.00,   0.00, 1003.5,    0.3, -999.0
28-07-2023, 00:25:50,    247,    0.7,   13.8,   0.00,   0.00, 1003.6,    0.3, -999.0
28-07-2023, 00:26:01,    245,    0.1,   13.8,   0.00,   0.00, 1003.4,    0.5, -999.0
28-07-2023, 00:26:10,    185,    0.0,   13.8,   0.00,   0.00, 1003.4,    0.5, -999.0
28-07-2023, 00:26:20,    186,    0.6,   13.7,   0.00,   0.00, 1003.5,    0.5, -999.0
28-07-2023, 00:26:30,    227,    1.5,   13.8,   0.00,   0.00, 1003.5,    0.6, -999.0
28-07-2023, 00:26:40,    203,    0.7,   13.8,   0.00,   0.00, 1003.5,    0.8, -999.0
28-07-2023, 00:26:51,    217,    0.5,   13.8,   0.00,   0.00, 1003.5,    0.6, -999.0
28-07-2023, 00:27:00,    217,    0.0,   13.7,   0.00,   0.00, 1003.4,    0.3, -999.0
28-07-2023, 00:27:10,    217,    0.0,   13.8,   0.00,   0.00, 1003.5,    0.6, -999.0
28-07-2023, 00:27:20,    233,    0.4,   13.8,   0.00,   0.00, 1003.5,    0.3, -999.0
28-07-2023, 00:27:30,    233,    0.0,   13.7,   0.00,   0.00, 1003.4,    1.1, -999.0
28-07-2023, 00:27:40,    234,    0.1,   13.8,   0.00,   0.00, 1003.5,    0.5, -999.0
28-07-2023, 00:27:50,    234,    0.2,   13.8,   0.00,   0.00, 1003.5,    0.9, -999.0
28-07-2023, 00:28:00,    242,    0.2,   13.8,   0.00,   0.00, 1003.5,    0.7, -999.0
28-07-2023, 00:28:10,    242,    0.2,   13.8,   0.00,   0.00, 1003.5,    0.4, -999.0
28-07-2023, 00:28:20,    243,    0.0,   13.7,   0.00,   0.00, 1003.4,    0.5, -999.0
28-07-2023, 00:28:30,    263,    0.3,   13.8,   0.00,   0.00, 1003.5,    0.7, -999.0
28-07-2023, 00:28:40,    264,    1.0,   13.8,   0.00,   0.00, 1003.6,    0.6, -999.0
28-07-2023, 00:28:50,    264,    0.0,   13.8,   0.00,   0.00, 1003.4,    0.6, -999.0
28-07-2023, 00:29:00,    264,    0.0,   13.8,   0.00,   0.00, 1003.4,    0.6, -999.0
28-07-2023, 00:29:10,    264,    0.0,   13.8,   0.00,   0.00, 1003.4,    0.3, -999.0
28-07-2023, 00:29:20,    223,    0.0,   13.8,   0.00,   0.00, 1003.5,    0.7, -999.0
28-07-2023, 00:29:30,    226,    0.4,   13.9,   0.00,   0.00, 1003.6,    0.7, -999.0
28-07-2023, 00:29:40,    225,    0.1,   13.8,   0.00,   0.00, 1003.5,    0.4, -999.0
28-07-2023, 00:29:50,    226,    0.0,   13.7,   0.00,   0.00, 1003.4,    0.5, -999.0
28-07-2023, 00:30:00,    226,    0.0,   13.8,   0.00,   0.00, 1003.4,    0.4, -999.0
28-07-2023, 00:30:10,    226,    0.0,   13.8,   0.00,   0.00, 1003.5,    0.5, -999.0
28-07-2023, 00:30:20,    225,    0.0,   13.8,   0.00,   0.00, 1003.4,    0.5, -999.0
28-07-2023, 00:30:30,    225,    0.0,   13.8,   0.00,   0.00, 1003.5,    0.6, -999.0
28-07-2023, 00:30:39,    225,    0.2,   13.8,   0.00,   0.00, 1003.5,    0.7, -999.0
28-07-2023, 00:30:50,    225,    0.5,   13.9,   0.00,   0.00, 1003.6,    1.2, -999.0
28-07-2023, 00:31:00,    278,    0.6,   13.9,   0.00,   0.00, 1003.6,    1.1, -999.0
28-07-2023, 00:31:10,    279,    0.6,   13.9,   0.00,   0.00, 1003.6,    0.3, -999.0
28-07-2023, 00:31:19,    288,    0.7,   13.9,   0.00,   0.00, 1003.6,    0.4, -999.0
28-07-2023, 00:31:30,    291,    0.0,   13.8,   0.00,   0.00, 1003.5,    0.4, -999.0
28-07-2023, 00:31:40,    290,    0.0,   13.8,   0.00,   0.00, 1003.4,    0.6, -999.0
28-07-2023, 00:31:49,    291,    0.0,   13.8,   0.00,   0.00, 1003.4,    0.6, -999.0
28-07-2023, 00:31:59,    290,    0.0,   13.8,   0.00,   0.00, 1003.4,    0.4, -999.0
28-07-2023, 00:32:10,    290,    0.0,   13.7,   0.00,   0.00, 1003.4,    0.6, -999.0
28-07-2023, 00:32:19,    290,    0.0,   13.8,   0.00,   0.00, 1003.4,    0.5, -999.0
28-07-2023, 00:32:29,    290,    0.0,   13.8,   0.00,   0.00, 1003.4,    0.5, -999.0
28-07-2023, 00:32:39,    290,    0.0,   13.8,   0.00,   0.00, 1003.5,    0.4, -999.0
28-07-2023, 00:32:49,    289,    0.0,   13.7,   0.00,   0.00, 1003.4,    0.4, -999.0
28-07-2023, 00:32:59,    289,    0.0,   13.8,   0.00,   0.00, 1003.5,    0.5, -999.0
28-07-2023, 00:33:09,    289,    0.0,   13.7,   0.00,   0.00, 1003.4,    0.6, -999.0
28-07-2023, 00:33:19,    289,    0.0,   13.7,   0.00,   0.00, 1003.4,    0.5, -999.0
28-07-2023, 00:33:29,    289,    0.0,   13.8,   0.00,   0.00, 1003.4,    0.6, -999.0
28-07-2023, 00:33:39,    288,    0.0,   13.8,   0.00,   0.00, 1003.4,    0.5, -999.0
28-07-2023, 00:33:49,    288,    0.0,   13.8,   0.00,   0.00, 1003.4,    0.4, -999.0
28-07-2023, 00:33:59,    288,    0.0,   13.8,   0.00,   0.00, 1003.4,    0.5, -999.0
28-07-2023, 00:34:09,    288,    0.0,   13.8,   0.00,   0.00, 1003.4,    0.7, -999.0
28-07-2023, 00:34:19,    288,    0.0,   13.7,   0.00,   0.00, 1003.4,    0.5, -999.0
28-07-2023, 00:34:29,    289,    0.0,   13.8,   0.00,   0.00, 1003.4,    0.7, -999.0
28-07-2023, 00:34:39,    288,    0.0,   13.8,   0.00,   0.00, 1003.4,    0.6, -999.0
28-07-2023, 00:34:49,    288,    0.0,   13.8,   0.00,   0.00, 1003.4,    0.6, -999.0
28-07-2023, 00:34:59,    289,    0.0,   13.7,   0.00,   0.00, 1003.4,    0.5, -999.0
28-07-2023, 00:35:09,    288,    0.0,   13.8,   0.00,   0.00, 1003.4,    0.5, -999.0
28-07-2023, 00:35:19,    226,    0.5,   13.8,   0.00,   0.00, 1003.5,    0.4, -999.0
28-07-2023, 00:35:29,    227,    0.4,   13.9,   0.00,   0.00, 1003.5,    0.8, -999.0
28-07-2023, 00:35:39,    228,    0.0,   13.8,   0.00,   0.00, 1003.4,    0.5, -999.0
28-07-2023, 00:35:49,    207,    0.1,   13.8,   0.00,   0.00, 1003.4,    0.7, -999.0
28-07-2023, 00:35:59,    207,    0.0,   13.8,   0.00,   0.00, 1003.4,    0.4, -999.0
28-07-2023, 00:36:09,    207,    0.0,   13.8,   0.00,   0.00, 1003.4,    0.4, -999.0
28-07-2023, 00:36:19,    208,    0.0,   13.8,   0.00,   0.00, 1003.4,    0.4, -999.0
28-07-2023, 00:36:29,    207,    0.0,   13.8,   0.00,   0.00, 1003.4,    0.5, -999.0
28-07-2023, 00:36:39,    207,    0.0,   13.8,   0.00,   0.00, 1003.4,    0.5, -999.0
28-07-2023, 00:36:49,    207,    0.0,   13.8,   0.00,   0.00, 1003.4,    0.3, -999.0
28-07-2023, 00:36:59,    207,    0.0,   13.8,   0.00,   0.00, 1003.4,    1.0, -999.0
28-07-2023, 00:37:08,    250,    0.2,   13.8,   0.00,   0.00, 1003.5,    0.4, -999.0
28-07-2023, 00:37:19,    209,    0.3,   13.9,   0.00,   0.00, 1003.5,    0.5, -999.0
28-07-2023, 00:37:29,    241,    0.7,   13.9,   0.00,   0.00, 1003.6,    0.6, -999.0
28-07-2023, 00:37:38,    286,    0.1,   13.8,   0.00,   0.00, 1003.4,    0.5, -999.0
28-07-2023, 00:37:49,    225,    0.9,   13.9,   0.00,   0.00, 1003.5,    0.5, -999.0
28-07-2023, 00:37:59,    240,    0.5,   13.9,   0.00,   0.00, 1003.5,    0.5, -999.0
28-07-2023, 00:38:08,    239,    0.0,   13.8,   0.00,   0.00, 1003.4,    0.4, -999.0
28-07-2023, 00:38:18,    240,    0.0,   13.8,   0.00,   0.00, 1003.4,    0.5, -999.0
28-07-2023, 00:38:29,    242,    0.1,   13.8,   0.00,   0.00, 1003.4,    0.3, -999.0
28-07-2023, 00:38:38,    242,    0.2,   13.9,   0.00,   0.00, 1003.5,    0.4, -999.0
28-07-2023, 00:38:48,    243,    0.0,   13.8,   0.00,   0.00, 1003.4,    0.5, -999.0
28-07-2023, 00:38:58,    243,    0.0,   13.8,   0.00,   0.00, 1003.4,    0.7, -999.0
28-07-2023, 00:39:08,    244,    0.6,   13.8,   0.00,   0.00, 1003.5,    0.5, -999.0
28-07-2023, 00:39:18,    244,    0.0,   13.8,   0.00,   0.00, 1003.4,    0.4, -999.0
28-07-2023, 00:39:28,    244,    0.0,   13.8,   0.00,   0.00, 1003.5,    0.4, -999.0
28-07-2023, 00:39:38,    244,    0.0,   13.7,   0.00,   0.00, 1003.4,    0.3, -999.0
28-07-2023, 00:39:48,    244,    0.1,   13.8,   0.00,   0.00, 1003.5,    0.5, -999.0
28-07-2023, 00:39:58,    244,    0.0,   13.8,   0.00,   0.00, 1003.4,    0.3, -999.0
28-07-2023, 00:40:08,    244,    0.0,   13.8,   0.00,   0.00, 1003.4,    0.4, -999.0
28-07-2023, 00:40:18,    244,    0.0,   13.8,   0.00,   0.00, 1003.4,    0.3, -999.0
28-07-2023, 00:40:28,    244,    0.0,   13.8,   0.00,   0.00, 1003.4,    0.4, -999.0
28-07-2023, 00:40:38,    244,    0.0,   13.7,   0.00,   0.00, 1003.4,    0.2, -999.0
28-07-2023, 00:40:48,    244,    0.0,   13.7,   0.00,   0.00, 1003.4,    0.3, -999.0
28-07-2023, 00:40:58,    243,    0.0,   13.8,   0.00,   0.00, 1003.4,    0.3, -999.0
28-07-2023, 00:41:08,    243,    0.0,   13.7,   0.00,   0.00, 1003.4,    0.5, -999.0
28-07-2023, 00:41:18,    243,    0.0,   13.8,   0.00,   0.00, 1003.4,    0.7, -999.0
28-07-2023, 00:41:28,    243,    0.0,   13.8,   0.00,   0.00, 1003.4,    0.4, -999.0
28-07-2023, 00:41:38,    243,    0.0,   13.8,   0.00,   0.00, 1003.4,    0.5, -999.0
28-07-2023, 00:41:48,    242,    0.0,   13.8,   0.00,   0.00, 1003.4,    0.4, -999.0
28-07-2023, 00:41:58,    243,    0.0,   13.8,   0.00,   0.00, 1003.4,    0.5, -999.0
28-07-2023, 00:42:08,    243,    0.0,   13.8,   0.00,   0.00, 1003.4,    0.5, -999.0
28-07-2023, 00:42:18,    243,    0.0,   13.8,   0.00,   0.00, 1003.4,    0.5, -999.0
28-07-2023, 00:42:28,    242,    0.0,   13.8,   0.00,   0.00, 1003.4,    0.3, -999.0
28-07-2023, 00:42:38,    243,    0.0,   13.7,   0.00,   0.00, 1003.4,    0.7, -999.0
28-07-2023, 00:42:48,    242,    0.0,   13.8,   0.00,   0.00, 1003.4,    0.6, -999.0
28-07-2023, 00:42:58,    243,    0.0,   13.7,   0.00,   0.00, 1003.4,    0.4, -999.0
28-07-2023, 00:43:08,    243,    0.0,   13.8,   0.00,   0.00, 1003.4,    0.4, -999.0
28-07-2023, 00:43:18,    243,    0.0,   13.7,   0.00,   0.00, 1003.4,    0.5, -999.0
28-07-2023, 00:43:28,    242,    0.0,   13.8,   0.00,   0.00, 1003.4,    0.3, -999.0
28-07-2023, 00:43:38,    243,    0.0,   13.7,   0.00,   0.00, 1003.4,    0.4, -999.0
28-07-2023, 00:43:48,    244,    0.0,   13.7,   0.00,   0.00, 1003.4,    0.6, -999.0
28-07-2023, 00:43:58,    243,    0.0,   13.7,   0.00,   0.00, 1003.4,    0.5, -999.0
28-07-2023, 00:44:07,    243,    0.0,   13.8,   0.00,   0.00, 1003.4,    0.6, -999.0
28-07-2023, 00:44:18,    243,    0.0,   13.8,   0.00,   0.00, 1003.4,    0.5, -999.0
28-07-2023, 00:44:28,    243,    0.0,   13.8,   0.00,   0.00, 1003.4,    0.3, -999.0
28-07-2023, 00:44:37,    242,    0.0,   13.8,   0.00,   0.00, 1003.4,    0.1, -999.0
28-07-2023, 00:44:47,    243,    0.0,   13.8,   0.00,   0.00, 1003.4,    0.3, -999.0
28-07-2023, 00:44:58,    243,    0.0,   13.8,   0.00,   0.00, 1003.4,    1.0, -999.0
28-07-2023, 00:45:07,    242,    0.0,   13.7,   0.00,   0.00, 1003.4,    0.2, -999.0
28-07-2023, 00:45:17,    243,    0.0,   13.7,   0.00,   0.00, 1003.4,    0.6, -999.0
28-07-2023, 00:45:27,    241,    0.0,   13.8,   0.00,   0.00, 1003.4,    0.2, -999.0
28-07-2023, 00:45:37,    224,    0.6,   13.8,   0.00,   0.00, 1003.5,    0.5, -999.0
28-07-2023, 00:45:47,    244,    1.7,   13.9,   0.00,   0.00, 1003.5,    0.7, -999.0
28-07-2023, 00:45:57,    243,    0.9,   13.8,   0.00,   0.00, 1003.5,    0.7, -999.0
28-07-2023, 00:46:08,    243,    0.0,   13.8,   0.00,   0.00, 1003.4,    0.6, -999.0
28-07-2023, 00:46:17,    243,    0.0,   13.8,   0.00,   0.00, 1003.4,    0.6, -999.0
28-07-2023, 00:46:27,    243,    0.0,   13.7,   0.00,   0.00, 1003.4,    0.4, -999.0
28-07-2023, 00:46:37,    243,    0.0,   13.8,   0.00,   0.00, 1003.4,    0.5, -999.0
28-07-2023, 00:46:47,    243,    0.0,   13.8,   0.00,   0.00, 1003.4,    0.5, -999.0